Regional Weather Roundup
Issued by NWS

Home | Current Version | Previous Version | Graphics & Text | Print | Product List | Glossary On
Versions: 1 2 3 4 5 6 7 8 9 10 11 12 13 14 15 16 17 18 19 20 21 22 23 24 25 26 27 28 29 30 31 32 33 34 35 36 37 38 39 40 41 42 43 44 45 46 47 48 49 50
000
ASUS43 KFSD 242002
RWRSD

WEATHER ROUNDUP FOR SOUTH DAKOTA
NATIONAL WEATHER SERVICE SIOUX FALLS SD
300 PM CDT THU MAY 24 2018

NOTE: "FAIR" INDICATES FEW OR NO CLOUDS BELOW 12,000 FEET WITH NO
SIGNIFICANT WEATHER AND/OR OBSTRUCTIONS TO VISIBILITY.


SDZ001>005-009-010-012>017-242100-
NORTHWEST AND NORTH CENTRAL SOUTH DAKOTA

CITY           SKY/WX    TMP DP  RH WIND       PRES   REMARKS
BUFFALO          N/A     79  51  37 W23G37    29.83S
FAITH            N/A     79  54  41 W13       29.88S
MOBRIDGE       SUNNY     85  61  44 W13       29.79F
$$

SDZ012>016-024>037-041>051-057-063-072>074-242100-
SOUTHWEST AND SOUTH CENTRAL SOUTH DAKOTA

CITY           SKY/WX    TMP DP  RH WIND       PRES   REMARKS
RAPID CTY ARPT SUNNY     78  56  46 NE9       29.93S
PIERRE         SUNNY     84  61  45 W9G21     29.83F
CUSTER         SUNNY     71  43  36 W12G18    30.05S
ELLSWORTH AFB  SUNNY     78  52  40 NE5       29.93S
PHILIP         SUNNY     81  59  47 NW8       29.87F
PINE RIDGE     SUNNY     81  52  36 W18G24    29.96F
SPEARFISH      FAIR      77  48  36 W14       29.96F
WINNER         FAIR      85  66  53 S10       29.88F
$$

SDZ004>011-016>023-039-040-242100-
NORTHEAST SOUTH DAKOTA

CITY           SKY/WX    TMP DP  RH WIND       PRES   REMARKS
ABERDEEN       SUNNY     89  61  38 S12G24    29.81F
WATERTOWN      SUNNY     83  62  49 S18G29    29.88F
BROOKINGS      MOSUNNY   85  66  53 S14       29.90F
SISSETON         N/A     87  61  41 SW12      29.84F
$$

SDZ017-020-022-023-036>040-048>070-242100-
SOUTHEAST SOUTH DAKOTA

CITY           SKY/WX    TMP DP  RH WIND       PRES   REMARKS
SIOUX FALLS    CLOUDY    83  66  56 S17G28    29.90F
HURON          MOSUNNY   86  63  45 S15G23    29.85F
MITCHELL       PTSUNNY   87  62  43 SW17G23   29.87F
YANKTON        PTSUNNY   87  59  38 S12       29.89S
$$

ABBREVIATIONS USED IN REMARKS
   TC - TEMPERATURE IN CELSIUS
  WCI - WIND CHILL INDEX
   HX - HEAT INDEX
  VSB - VISIBILITY





USA.gov is the U.S. government's official web portal to all federal, state and local government web resources and services.